Sedona, AZ

3:47 AM MST on December 13, 2019 (GMT -0700)
Sedona

Weather History for KSEZ - November, 2019

Change the Weather History Date:

Sunday, November 17, 2019

  Actual Average Record
Temperature  
Mean Temperature 62 °F -  
Max Temperature 73 °F 63 °F 73 °F (2019)
Min Temperature 51 °F 35 °F 32 °F (2015)
Degree Days  
Heating Degree Days 3    
Growing Degree Days 12 (Base 50)    
Moisture  
Dew Point 18 °F    
Average Humidity 20    
Maximum Humidity 28    
Minimum Humidity 13    
Precipitation  
Precipitation 0.00 in - - ()
Sea Level Pressure  
Sea Level Pressure 30.19 in    
Wind  
Wind Speed 10 mph (NE)    
Max Wind Speed 17 mph    
Max Gust Speed 23 mph    
Visibility 10 miles    
Events      
Averages and records for this station are not official NWS values.
T = Trace of Precipitation, MM = Missing Value Source: NWS Daily Summary

Daily Weather History Graph

Daily Weather History Graph

Search for Another Location

Airport or City:

Astronomy

Nov. 17, 2019 Rise Set
Actual Time 7:03 AM MST 5:20 PM MST
Civil Twilight 6:36 AM MST 5:47 PM MST
Nautical Twilight 6:05 AM MST 6:18 PM MST
Astronomical Twilight 5:35 AM MST 6:48 PM MST
Moon 10:04 PM MST (11/17) 11:48 AM MST (11/17)
Length of Visible Light 11h 11m
Length of Day
10h 17m
Waning Gibbous, 73% of the Moon is Illuminated
Nov 17
Waning Gibbous
Nov 19
Last Quarter
Nov 26
New
Dec 3
First Quarter
Dec 11
Full

Hourly Weather History & Observations

Time (MST) Temp. Dew Point Humidity Pressure Visibility Wind Dir Wind Speed Gust Speed Precip Events Conditions
12:15 AM 55.4 °F 19.4 °F 25% 30.18 in 10.0 mi NE 10.4 mph - N/A   Clear
12:35 AM 55.4 °F 19.4 °F 25% 30.18 in 10.0 mi NE 9.2 mph - N/A   Clear
12:55 AM 57.2 °F 19.4 °F 23% 30.19 in 10.0 mi NE 8.1 mph - N/A   Clear
1:15 AM 57.2 °F 19.4 °F 23% 30.19 in 10.0 mi ENE 5.8 mph - N/A   Clear
1:35 AM 55.4 °F 19.4 °F 25% 30.19 in 10.0 mi NE 5.8 mph - N/A   Clear
1:55 AM 51.8 °F 19.4 °F 28% 30.19 in 10.0 mi NE 10.4 mph - N/A   Clear
2:15 AM 55.4 °F 19.4 °F 25% 30.19 in 10.0 mi NE 9.2 mph - N/A   Clear
2:35 AM 55.4 °F 19.4 °F 25% 30.21 in 10.0 mi ENE 6.9 mph - N/A   Clear
2:55 AM 55.4 °F 19.4 °F 25% 30.19 in 10.0 mi NE 8.1 mph - N/A   Clear
3:15 AM 55.4 °F 19.4 °F 25% 30.20 in 10.0 mi NE 10.4 mph - N/A   Clear
3:35 AM 55.4 °F 19.4 °F 25% 30.20 in 10.0 mi NE 11.5 mph - N/A   Clear
3:55 AM 55.4 °F 19.4 °F 25% 30.21 in 10.0 mi NE 10.4 mph - N/A   Clear
4:15 AM 55.4 °F 21.2 °F 26% 30.21 in 10.0 mi NE 10.4 mph 19.6 mph N/A   Clear
4:35 AM 55.4 °F 21.2 °F 26% 30.21 in 10.0 mi NE 10.4 mph 17.3 mph N/A   Clear
4:55 AM 55.4 °F 21.2 °F 26% 30.20 in 10.0 mi NE 11.5 mph 23.0 mph N/A   Clear
5:15 AM 55.4 °F 21.2 °F 26% 30.20 in 10.0 mi NE 17.3 mph - N/A   Clear
5:35 AM 55.4 °F 21.2 °F 26% 30.21 in 10.0 mi NNE 16.1 mph - N/A   Clear
5:55 AM 53.6 °F 21.2 °F 28% 30.20 in 10.0 mi NNE 16.1 mph - N/A   Clear
6:15 AM 55.4 °F 21.2 °F 26% 30.20 in 10.0 mi NE 16.1 mph 20.7 mph N/A   Clear
6:35 AM 53.6 °F 21.2 °F 28% 30.21 in 10.0 mi NE 15.0 mph 19.6 mph N/A   Clear
6:55 AM 53.6 °F 19.4 °F 26% 30.21 in 10.0 mi NNE 17.3 mph - N/A   Clear
7:15 AM 53.6 °F 19.4 °F 26% 30.22 in 10.0 mi NE 15.0 mph 20.7 mph N/A   Clear
7:35 AM 53.6 °F 21.2 °F 28% 30.23 in 10.0 mi NE 17.3 mph 21.9 mph N/A   Clear
7:55 AM 53.6 °F 21.2 °F 28% 30.23 in 10.0 mi NE 12.7 mph 19.6 mph N/A   Clear
8:15 AM 55.4 °F 21.2 °F 26% 30.23 in 10.0 mi NE 10.4 mph 18.4 mph N/A   Clear
8:35 AM 57.2 °F 21.2 °F 25% 30.24 in 10.0 mi ENE 6.9 mph 16.1 mph N/A   Clear
8:55 AM 59.0 °F 21.2 °F 23% 30.25 in 10.0 mi ENE 9.2 mph 16.1 mph N/A   Clear
9:15 AM 60.8 °F 21.2 °F 22% 30.25 in 10.0 mi ENE 12.7 mph 17.3 mph N/A   Clear
9:35 AM 62.6 °F 21.2 °F 20% 30.24 in 10.0 mi ENE 10.4 mph - N/A   Clear
9:55 AM 64.4 °F 21.2 °F 19% 30.24 in 10.0 mi East 8.1 mph - N/A   Clear
10:15 AM 66.2 °F 21.2 °F 18% 30.23 in 10.0 mi East 8.1 mph - N/A   Clear
10:35 AM 68.0 °F 21.2 °F 17% 30.23 in 10.0 mi ENE 8.1 mph - N/A   Clear
10:55 AM 68.0 °F 21.2 °F 17% 30.22 in 10.0 mi East 4.6 mph - N/A   Clear
11:15 AM 69.8 °F 21.2 °F 16% 30.21 in 10.0 mi East 10.4 mph - N/A   Clear
11:35 AM 69.8 °F 19.4 °F 15% 30.20 in 10.0 mi ENE 5.8 mph 16.1 mph N/A   Clear
11:55 AM 71.6 °F 19.4 °F 14% 30.19 in 10.0 mi SE 3.5 mph - N/A   Clear
12:15 PM 73.4 °F 19.4 °F 13% 30.17 in 10.0 mi East 9.2 mph - N/A   Clear
12:35 PM 71.6 °F 19.4 °F 14% 30.17 in 10.0 mi South 4.6 mph - N/A   Clear
12:55 PM 73.4 °F 21.2 °F 14% 30.16 in 10.0 mi SSE 6.9 mph - N/A   Clear
1:15 PM 73.4 °F 21.2 °F 14% 30.15 in 10.0 mi South 5.8 mph - N/A   Clear
1:35 PM 71.6 °F 21.2 °F 15% 30.15 in 10.0 mi SSW 6.9 mph - N/A   Clear
1:55 PM 71.6 °F 21.2 °F 15% 30.15 in 10.0 mi South 4.6 mph - N/A   Clear
2:15 PM 71.6 °F 21.2 °F 15% 30.15 in 10.0 mi SW 6.9 mph - N/A   Clear
2:35 PM 71.6 °F 21.2 °F 15% 30.15 in 10.0 mi WSW 4.6 mph - N/A   Clear
2:55 PM 71.6 °F 21.2 °F 15% 30.15 in 10.0 mi South 5.8 mph - N/A   Clear
3:15 PM 71.6 °F 21.2 °F 15% 30.15 in 10.0 mi South 4.6 mph - N/A   Clear
3:35 PM 71.6 °F 21.2 °F 15% 30.15 in 10.0 mi SSE 3.5 mph - N/A   Clear
3:55 PM 71.6 °F 21.2 °F 15% 30.15 in 10.0 mi Calm Calm - N/A   Clear
4:15 PM 69.8 °F 19.4 °F 15% 30.15 in 10.0 mi Calm Calm - N/A   Clear
4:35 PM 71.6 °F 19.4 °F 14% 30.15 in 10.0 mi SW 3.5 mph - N/A   Clear
4:55 PM 69.8 °F 19.4 °F 15% 30.17 in 10.0 mi WNW 4.6 mph - N/A   Clear
5:15 PM 68.0 °F 19.4 °F 16% 30.17 in 10.0 mi WNW 3.5 mph - N/A   Clear
5:35 PM 66.2 °F 19.4 °F 17% 30.17 in 10.0 mi West 3.5 mph - N/A   Clear
5:55 PM 66.2 °F 19.4 °F 17% 30.17 in 10.0 mi Calm Calm - N/A   Clear
6:15 PM 66.2 °F 19.4 °F 17% 30.17 in 10.0 mi Calm Calm - N/A   Clear
6:35 PM 64.4 °F 19.4 °F 18% 30.17 in 10.0 mi NNE 8.1 mph - N/A   Clear
6:55 PM 62.6 °F 12.2 °F 14% 30.18 in 10.0 mi NNE 11.5 mph - N/A   Clear
7:15 PM 62.6 °F 10.4 °F 13% 30.18 in 10.0 mi NE 13.8 mph - N/A   Clear
7:35 PM 62.6 °F 10.4 °F 13% 30.18 in 10.0 mi NE 11.5 mph 18.4 mph N/A   Clear
7:55 PM 60.8 °F 10.4 °F 14% 30.19 in 10.0 mi NE 12.7 mph 17.3 mph N/A   Clear
8:15 PM 62.6 °F 10.4 °F 13% 30.19 in 10.0 mi NNE 6.9 mph - N/A   Clear
8:35 PM 59.0 °F 12.2 °F 16% 30.19 in 10.0 mi NNE 11.5 mph - N/A   Clear
8:55 PM 59.0 °F 12.2 °F 16% 30.19 in 10.0 mi NNE 15.0 mph - N/A   Clear
9:15 PM 57.2 °F 12.2 °F 17% 30.19 in 10.0 mi NNE 16.1 mph - N/A   Clear
9:35 PM 55.4 °F 10.4 °F 17% 30.19 in 10.0 mi NNE 16.1 mph - N/A   Clear
9:55 PM 57.2 °F 10.4 °F 16% 30.19 in 10.0 mi NNE 16.1 mph - N/A   Clear
10:15 PM 57.2 °F 12.2 °F 17% 30.19 in 10.0 mi NNE 16.1 mph - N/A   Clear
10:35 PM 55.4 °F 12.2 °F 18% 30.19 in 10.0 mi NNE 15.0 mph - N/A   Clear
10:55 PM 55.4 °F 12.2 °F 18% 30.18 in 10.0 mi NNE 17.3 mph - N/A   Clear
11:15 PM 55.4 °F 14.0 °F 20% 30.18 in 10.0 mi NE 16.1 mph - N/A   Clear
11:35 PM 57.2 °F 14.0 °F 18% 30.18 in 10.0 mi NNE 15.0 mph - N/A   Clear
11:55 PM 55.4 °F 14.0 °F 20% 30.17 in 10.0 mi NNE 13.8 mph - N/A   Clear